Погода в Крылове

Россия / Ростовская область     48°08′24″N   41°31′16″E
темп.,
°C
ветер,
м/с
пор.,
м/с
влажн.,
%
обл.,
%
осадки,
мм/ч
давл.,
гПа
погр.,
м
17 мая, пн
пн1700:00+20вюв7184288 0.0 1008398
03:00+18вюв6184551 0.0 1008363
06:00+17вюв719535 0.0 1007384
09:00+23вюв8164637 0.0 1008866
12:00+27юв9133740 0.0 10081434
15:00+28юв713350 0.0 10072065
18:00+26вюв364868 0.0 1006155
21:00+20ююв22625 0.0 100724
18 мая, вт
вт1800:00+18вюв4756100 0.0 100790
03:00+16зюз237697 0.0 100843
06:00+16з488879 0.0 1008309
09:00+20зсз566844 0.0 1008682
12:00+23з445889 0.0 10081159
15:00+17зюз5788100 1.3 1010275
18:00+17зюз3587100 0.1 1010143
21:00+16зюз3786100 0.1 1010162
19 мая, ср
ср1900:00+15з3583100 0.0 101080
03:00+13зсз118422 0.0 100911
06:00+15св117824 0.0 100955
09:00+20ю116160 0.0 1009609
12:00+22ююз6558100 0.4 10091640
15:00+15юз71185100 2.0 1011706
18:00+15юз4891100 1.6 1010521
21:00+14юз4109231 1.7 1011327
20 мая, чт
чт2000:00+12ююз5129426 0.0 1011449
03:00+13ююз61292100 0.0 1012599
06:00+12ююз7139299 0.1 1012754
09:00+16юз8117889 0.3 10131063
12:00+19юз796377 0.4 10141512
15:00+19зюз576031 0.6 10141480
18:00+19зюз34643 0.1 1015533
21:00+15ююв2275100 0.1 101512
21 мая, пт
пт2100:00+14юв338180 0.0 101538
03:00+13вюв4585100 0.0 101573
06:00+14вюв4108287 0.0 1015254
09:00+20юв6961100 0.0 1015633
12:00+24юв7850100 0.0 10141032
15:00+25юв564440 0.0 10141208
18:00+24вюв475546 0.0 1013283
21:00+19в496213 0.0 1013121